Regional Weather Roundup
Issued by NWS Kansas City/Pleasant Hill, MO

Home | Current Version | Previous Version | Text Only | Print | Product List | Glossary On
Versions: 1 2 3 4 5 6 7 8 9 10 11 12 13 14 15 16 17 18 19 20 21 22 23 24 25 26 27 28 29 30 31 32 33 34 35 36 37 38 39 40 41 42 43 44 45 46 47 48 49 50
000
ASUS43 KEAX 290810
RWREAX

WEATHER ROUNDUP FOR EASTERN KANSAS AND NORTHWEST MISSOURI
NATIONAL WEATHER SERVICE KANSAS CITY/PLEASANT HILL MO
300 AM CDT SAT JUL 29 2017

KSZ040-057-103>105-MOZ028-029-037-043-290900-
...KANSAS CITY METROPOLITAN AREA...

CITY           SKY/WX    TMP DP  RH WIND       PRES   REMARKS
K.C. INTL      CLOUDY    72  60  66 E8        30.03F
K.C. DOWNTOWN  CLOUDY    74  63  68 NE3       30.02S
LEES SUMMIT    PTCLDY    70  62  76 E7        30.04S
OLATHE - IXD   PTCLDY    68  62  81 E5        30.04S
OLATHE - OJC   MOCLDY    68  62  81 NE5       30.04R
LAWRENCE       CLOUDY    66  66 100 CALM      30.02F

$$

MOZ001>008-011>017-020>025-030>033-038>040-044>046-053-054-290900-
...NORTHERN AND CENTRAL MISSOURI...

CITY           SKY/WX    TMP DP  RH WIND       PRES   REMARKS
ST. JOSEPH     MOCLDY    64  63  96 N3        30.04S
MOSBY          MOSUNNY   64  64 100 CALM      30.03S
WARRENSBURG    PTCLDY    64  59  82 N3        30.02S
WHITEMAN AFB   CLEAR     64  64 100 CALM      30.02R
CLINTON        CLEAR     66  63  88 CALM      30.02R
SEDALIA        CLEAR     67  64  90 NE3       30.03S
WARSAW         NOT AVBL
CHILLICOTHE      N/A     64  63  96 CALM      30.05F
KIRKSVILLE     CLEAR     62  59  90 NE5       30.06F

$$

MOZ041-047>049-056>058-063>065-088>090-097-290900-
...EASTERN AND SOUTHERN MISSOURI...

CITY           SKY/WX    TMP DP  RH WIND       PRES   REMARKS
ST. LOUIS INTL CLEAR     71  60  68 NE10      29.99S
SPIRIT OF STL  PTCLDY    69  63  81 NE7       29.98S
COLUMBIA       CLEAR     66  60  81 NE7       30.02S
JEFFERSON CITY CLEAR     70  63  78 NE7       30.00S
ROLLA          CLEAR     66  63  90 NE7       30.01S
OSAGE BEACH    CLEAR     67  64  90 N5        30.01S
SPRINGFIELD    CLEAR     67  63  87 NE5       29.98F
BRANSON        CLEAR     68  61  77 CALM      29.98S
JOPLIN         CLEAR     68  65  90 NE3       29.99S
WEST PLAINS    CLEAR     68  62  81 NE7       29.97F

$$

IAZ060-094-KSZ022-034>040-054-083-096-NEZ052-066-093-290900-
...KANSAS...SOUTHEAST NEBRASKA AND IOWA...

CITY           SKY/WX    TMP DP  RH WIND       PRES   REMARKS
TOPEKA         CLOUDY    68  68 100 CALM      30.02F
MANHATTAN      MOCLDY    68  66  93 CALM      30.02F
EMPORIA        CLEAR     66  63  90 E3        30.02F
CHANUTE        CLEAR     69  61  75 NE6       30.00F
WICHITA        PTCLDY    74  62  66 E12       30.01S
OMAHA          MOCLDY    71  63  75 SE5       30.06R
LINCOLN        CLOUDY    67  64  90 CALM      30.05S
FALLS CITY     CLOUDY    66  65  96 CALM      30.03S
LAMONI         CLOUDY    67  61  81 E3        30.07S
DES MOINES     PTCLDY    69  60  73 E6        30.07S

$$




USA.gov is the U.S. government's official web portal to all federal, state and local government web resources and services.